Flag Weather past 2 weeks in Anderson, South Carolina, U.S.A.

Now
40 °F

Clear.


Feels Like: 40 °F
Forecast: 30 / 55 °F
Wind: No wind

Location: Anderson County Airport

Current Time: Nov 28, 2014 at 7:17:37 PM

Latest Report: Nov 28, 2014 at 6:56 PM


Visibility: 10 mi

Pressure: 30.30 "Hg

Humidity: 53%

Dew point: 24 °F

Location of AndersonLocation

Historic Weather in Anderson — Graph

°F

Anderson temperature yesterday

Maximum temperature yesterday: 51 °F (at 11:56 AM)
Minimum temperature yesterday: 35 °F (at 11:56 PM)
Average temperature yesterday: 44 °F

Past Weeks' High & Low Weather Summary

 TemperatureHumidityPressure
High74 °F (Nov 24, 2:56 PM)100% (Nov 23, 9:56 PM)30.54 "Hg (Nov 23, 9:56 PM)
Low20 °F (Nov 19, 6:56 AM)23% (Nov 21, 1:56 PM)29.69 "Hg (Nov 17, 1:56 PM)
Average44 °F61%30.15 "Hg
* Reported Nov 13 5:56 PM — Nov 28 5:56 PM, Anderson, Weather by CustomWeather, © 2014

Note: Actual official high and low records may vary slightly from our data, if they occured in-between our weather recording intervals... More about our weather records

Advertising

Anderson weather history for previous 24 hours

 ConditionsComfort  
Time TempWeatherWind HumidityBarometerVisibility
5:56 PM
Nov 28
40 °FClear.No wind58%30.30 "Hg10 mi
4:56 PM45 °FSunny.6 mph42%30.29 "Hg10 mi
3:56 PM46 °FSunny.3 mph38%30.30 "Hg10 mi
2:56 PM45 °FSunny.7 mph38%30.31 "Hg10 mi
1:56 PM45 °FSunny.7 mph38%30.32 "Hg10 mi
12:56 PM44 °FSunny.6 mph37%30.33 "Hg10 mi
11:56 AM42 °FSunny.N/A39%30.37 "Hg10 mi
10:56 AM39 °FSunny.5 mph46%30.40 "Hg10 mi
9:56 AM37 °FSunny.3 mph52%30.41 "Hg10 mi
8:56 AM34 °FSunny.No wind64%30.40 "Hg10 mi
7:56 AM27 °FSunny.No wind85%30.38 "Hg10 mi
6:56 AM26 °FClear.No wind84%30.37 "Hg10 mi
5:56 AM27 °FClear.No wind85%30.35 "Hg10 mi
4:56 AM29 °FClear.No wind79%30.34 "Hg10 mi
3:56 AM28 °FClear.No wind81%30.35 "Hg10 mi
2:56 AM29 °FClear.3 mph82%30.33 "Hg10 mi
1:56 AM33 °FClear.5 mph66%30.33 "Hg10 mi
12:56 AM34 °FClear.6 mph67%30.33 "Hg10 mi
11:56 PM
Nov 27
35 °FClear.5 mph64%30.32 "Hg10 mi
10:56 PM37 °FClear.9 mph62%30.31 "Hg10 mi
9:56 PM38 °FClear.12 mph63%30.30 "Hg10 mi
8:56 PM39 °FClear.12 mph60%30.29 "Hg10 mi
7:56 PM39 °FClear.7 mph62%30.29 "Hg10 mi
Weather by CustomWeather, © 2014

See weather overviewHow to use our weather pages